Regional Weather Roundup
Issued by NWS Wilmington, NC

Home | Current Version | Previous Version | Text Only | Print | Product List | Glossary On
Versions: 1 2 3 4 5 6 7 8 9 10 11 12 13 14 15 16 17 18 19 20 21 22 23 24 25 26 27 28 29 30 31 32 33 34 35 36 37 38 39 40 41 42 43 44 45 46 47 48 49 50
000
ASUS42 KILM 272310
RWRILM
RWRILM
REGIONAL HOURLY WEATHER ROUNDUP
NATIONAL WEATHER SERVICE WILMINGTON NC
600 PM EST FRI FEB 27 2015

NOTE: "FAIR" INDICATES FEW OR NO CLOUDS BELOW 12,000 FEET WITH NO
SIGNIFICANT WEATHER AND/OR OBSTRUCTIONS TO VISIBILITY.

...............WFO WILMINGTON COUNTY WARNING AREA...............

......COASTAL NC AND SC COUNTIES......

CITY           SKY/WX    TMP DP  RH WIND       PRES   REMARKS
WILMINGTON     MOCLDY    45  34  65 E3        30.39R
SOUTHPORT      MOCLDY    44  35  69 E3        30.39R
N MYRTLE BEACH MOCLDY    45  35  68 SE5       30.38R
MYRTLE BEACH   CLEAR     46  34  61 SE5       30.40R

......INLAND NC AND SC COUNTIES.......

CITY           SKY/WX    TMP DP  RH WIND       PRES   REMARKS
LUMBERTON      CLEAR     50  31  48 NE5       30.37S
ELIZABETHTOWN  CLEAR     48  30  49 CALM      30.39R
WHITEVILLE     PTCLDY    49  31  50 N3        30.37R
FLORENCE       CLEAR     50  31  48 NE7       30.37R
DARLINGTON     CLEAR     50  34  53 NE6       30.39R

....................REST OF NORTH CAROLINA......................

.........EASTERN NC.........

CITY           SKY/WX    TMP DP  RH WIND       PRES   REMARKS
CAPE HATTERAS  MOCLDY    36  30  79 NE10G21   30.42R WCI  28
JACKSONVILLE   PTCLDY    45  28  53 N5        30.41R
MOREHEAD CITY  MOCLDY    43  30  60 NE8       30.40R
KENANSVILLE    CLEAR     46  28  49 NE3       30.41R
NEW BERN       PTCLDY    45  28  51 N7        30.41R
ELIZABETH CITY CLEAR     33  27  78 NE18      30.46R WCI  22

.........CENTRAL NC.........

CITY           SKY/WX    TMP DP  RH WIND       PRES   REMARKS
RALEIGH DURHAM PTCLDY    40  22  48 NE7       30.43R
ROCKY MOUNT    CLEAR     42  25  50 N5        30.43R
ROANOKE RAPIDS NOT AVBL
FAYETTEVILLE   CLEAR     47  28  47 N10       30.39R
HOFFMAN        CLEAR     46  29  51 N7        30.43R

.........WESTERN NC.........

CITY           SKY/WX    TMP DP  RH WIND       PRES   REMARKS
CHARLOTTE      PTCLDY    45  24  43 NE9       30.38R
GREENSBORO     PTCLDY    41  20  43 CALM      30.40R
HICKORY        NOT AVBL
BOONE          NOT AVBL
ASHEVILLE      NOT AVBL

.....................REST OF SOUTH CAROLINA.....................

.........EASTERN SC.........

CITY           SKY/WX    TMP DP  RH WIND       PRES   REMARKS
CHARLESTON     CLOUDY    46  34  62 E6        30.37R
BEAUFORT MCAS  CLOUDY    47  36  65 E5        30.36R
HILTON HEAD    MOCLDY    46  37  71 NE7       30.37R

.........CENTRAL SC.........

CITY           SKY/WX    TMP DP  RH WIND       PRES   REMARKS
COLUMBIA       PTCLDY    52  32  46 W5        30.35R
ORANGEBURG     CLEAR     52  32  46 E5        30.35R
SUMTER SHAW    CLEAR     51  34  52 E6        30.35R

.........WESTERN SC.........

CITY           SKY/WX    TMP DP  RH WIND       PRES   REMARKS
GREENVILLE     NOT AVBL
ROCK HILL      CLEAR     47  25  42 CALM      30.37R
ANDERSON       CLEAR     51  25  36 CALM      30.34R
CLEMSON        NOT AVBL
GREENWOOD      CLEAR     53  28  38 E3        30.35R


...................COASTAL AND OFFSHORE REPORTS..................

................LOCAL PIERS AND NC RESERVE................


STATION/POSITION TIME  SKY/WX   TEMP    WIND        PRES    VSBY
                                AIR SEA DIR/SP/G
                 (UTC)          (F)     (DEG/KT/KT) (MB)    (MI)
JOHNY MRCER PIER 2300            45 49   80/  6/  7 1028.2R
NC RESRV MASNBRO 2200            46      80/  2     1027.0S
OCEAN CREST PIER 2300            45 47   70/  7/  9 1028.0R
SPRINGMAID  PIER 2300            45 45  100/  2/  3 1028.5S


................COASTAL AND OFFSHORE BUOYS................


STATION/POSITION TIME  SKY/WX   TEMP    WIND        PRES    VSBY
                                AIR SEA DIR/SP/G
                 (UTC)          (F)     (DEG/KT/KT) (MB)    (MI)
DIMNDSHOAL 41025 NOT AVBL
CAPE LOOKOUT     2300            44      40/ 13/ 17 1029.3R
ONSLOW BAY 41036 NOT AVBL
5 WRITEBCH 41038 NOT AVBL
MASONBORO  41110 2200               47                N/A
WVE H/P(F/S)=  4/12 WND WVE H/P(F/S)=  3/ 9 SWL H/P/D(F/S/D)=  2/100/12

WILM HARBR 41108 2300               47                N/A
WVE H/P(F/S)=  3/ 8 WND WVE H/P(F/S)=  2/ 8 SWL H/P/D(F/S/D)=  2/140/12

27WRITEBCH 41037 NOT AVBL
FRYING PAN 41013 2300            48 62   40/ 16/ 19 1028.9R
WVE H/P(F/S)=  4/11 WND WVE H/P(F/S)=  3/ 6 SWL H/P/D(F/S/D)=  3/ 90/11

SUNST NRSH 41024 2200            45                   N/A
CAPRS NRSH 41029 NOT AVBL
EDISTO     41004 2300            51 66   40/ 17/ 21 1027.3R
WVE H/P(F/S)=  5/ 6 WND WVE H/P(F/S)=  5/ 6 SWL H/P/D(F/S/D)=  2/ 8



..........OFFSHORE BUOYS BEYOND 100 NM OFFSHORE...........
.....IN A TRIANGLE---HAT TO BERMUDA TO BAHAMAS TO HAT.....


STATION/POSITION TIME  SKY/WX   TEMP    WIND        PRES    VSBY
                                AIR SEA DIR/SP/G
                 (UTC)          (F)     (DEG/KT/KT) (MB)    (MI)
150E HAT   41001 NOT AVBL
W BERMUDA  41048 2213            67 69  280/  8/ 10 1022.0
WVE H/P(F/S)= 10/11 WND WVE H/P(F/S)=  2/ 4 SWL H/P/D(F/S/D)= 10/320/11

ATLANTIC S 41049 2152            74 74  140/  6/  8 1024.9R
WVE H/P(F/S)=  5/ 8 WND WVE H/P(F/S)=  2/ 4 SWL H/P/D(F/S/D)=  5/ 50/ 8

E BAHAMAS  41046 2205            78 78  110/ 14/ 17 1021.3R
WVE H/P(F/S)=  5/ 8 WND WVE H/P(F/S)=  3/ 5 SWL H/P/D(F/S/D)=  3/110/ 8

NE BAHAMAS 41047 2229            74 74  170/  4/  6 1021.7R
WVE H/P(F/S)=  5/ 8 WND WVE H/P(F/S)=  2/ 4

120E CANVRL41010 2300            67 73   50/ 21/ 25 1021.5F
WVE H/P(F/S)=  5/11 WND WVE H/P(F/S)=  3/ 4 SWL H/P/D(F/S/D)=  3/ 60/11


END


USA.gov is the U.S. government's official web portal to all federal, state and local government web resources and services.